Overview Statistics Trail Chart Weather Telemetry Raw packets
 

This is the latest recevied weather packets stored in our database for station/object SP5MRF. If no packets are shown the sender has not sent any weather packets the latest 10 day(s).

<< 19 20 21 22 23 24 25 >>
Time Temp. Humidity Pressure Rain* Wind** Luminosity Snow
1788425328 21.67° C 61% 1014.4 hPa 0 mm - - -
1788424850 21.67° C 63% 1014.7 hPa 0 mm - - -
1788424368 21.67° C 64% 1014.7 hPa 0 mm - - -
1788423888 21.67° C 65% 1014.6 hPa 0 mm - - -
1788423408 21.67° C 67% 1014.8 hPa 0 mm - - -
1788422928 21.67° C 67% 1014.7 hPa 0 mm - - -
1788422448 21.67° C 67% 1014.5 hPa 0 mm - - -
1788421968 21.11° C 69% 1014.6 hPa 0 mm - - -
1788421488 21.11° C 71% 1014.5 hPa 0 mm - - -
1788421008 20° C 75% 1014.5 hPa 0 mm - - -
1788420528 18.89° C 75% 1014.5 hPa 0 mm - - -
1788420048 18.89° C 76% 1014.6 hPa 0 mm - - -
1788419568 18.33° C 77% 1014.4 hPa 0 mm - - -
1788419088 17.78° C 79% 1014.5 hPa 0 mm - - -
1788418609 17.78° C 80% 1014.5 hPa 0 mm - - -
1788417648 17.22° C 82% 1014.3 hPa 0 mm - - -
1788416688 16.67° C 84% 1014.3 hPa 0 mm - - -
1788416208 16.11° C 85% 1014.4 hPa 0 mm - - -
1788415248 15.56° C 86% 1014.6 hPa 0 mm - - -
1788414768 15° C 87% 1014.4 hPa 0 mm - - -
1788413809 14.44° C 87% 1014.5 hPa 0 mm - - -
1788413328 14.44° C 87% 1014.6 hPa 0 mm - - -
1788412848 13.89° C 87% 1014.7 hPa 0 mm - - -
1788412368 13.89° C 87% 1014.6 hPa 0 mm - - -
1788411890 13.33° C 86% 1014.5 hPa 0 mm - - -

* Rain latest hour (hover to see other rain measurements)
** Current wind speed in m/s (hover to see current wind gust speed)